This is the latest recevied weather packets stored in our database for station/object AE6DC-5. If no packets are shown the sender has not sent any weather packets the latest 1 day(s).
| Time | Temp. | Humidity | Pressure | Rain* | Wind** | Luminosity | Snow |
|---|---|---|---|---|---|---|---|
| 1778028589 | 13.89° C | 8% | - | 0 mm | 4.02 m/s, 252° | - | - |
| 1778027990 | 13.33° C | 8% | - | 0 mm | 3.58 m/s, 250° | - | - |
| 1778026791 | 13.33° C | 8% | - | 0 mm | 4.02 m/s, 255° | - | - |
| 1778025590 | 13.33° C | 8% | - | 0 mm | 4.02 m/s, 254° | - | - |
| 1778024989 | 13.33° C | 8% | - | 0 mm | 4.47 m/s, 262° | - | - |
| 1778024390 | 13.33° C | 8% | - | 0 mm | 4.02 m/s, 255° | - | - |
| 1778023190 | 13.33° C | 8% | - | 0 mm | 3.58 m/s, 262° | - | - |
| 1778021990 | 13.33° C | 8% | - | 0 mm | 3.58 m/s, 253° | - | - |
| 1778020790 | 13.33° C | 8% | - | 0 mm | 4.47 m/s, 257° | - | - |
| 1778019591 | 13.33° C | 8% | - | 0 mm | 4.02 m/s, 265° | - | - |
| 1778018390 | 13.33° C | 8% | - | 0 mm | 4.02 m/s, 256° | - | - |
| 1778017190 | 13.33° C | 8% | - | 0 mm | 4.02 m/s, 260° | - | - |
| 1778015991 | 12.78° C | 8% | - | 0 mm | 4.02 m/s, 271° | - | - |
| 1778014790 | 13.33° C | 8% | - | 0 mm | 4.02 m/s, 271° | - | - |
| 1778013590 | 13.33° C | 8% | - | 0 mm | 4.02 m/s, 268° | - | - |
| 1778012390 | 13.33° C | 8% | - | 0 mm | 4.02 m/s, 265° | - | - |
| 1778011190 | 12.78° C | 8% | - | 0 mm | 4.47 m/s, 273° | - | - |
| 1778010001 | 12.78° C | 8% | - | 0 mm | 4.02 m/s, 277° | - | - |
| 1778008790 | 12.78° C | 8% | - | 0 mm | 3.58 m/s, 276° | - | - |
| 1778007589 | 12.78° C | 8% | - | 0 mm | 3.13 m/s, 280° | - | - |
| 1778006989 | 12.78° C | 8% | - | 0 mm | 3.58 m/s, 284° | - | - |
| 1778006389 | 12.78° C | 8% | - | 0 mm | 2.68 m/s, 294° | - | - |
| 1778005789 | 12.78° C | 8% | - | 0 mm | 3.58 m/s, 299° | - | - |
| 1778005189 | 12.78° C | 8% | - | 0 mm | 2.68 m/s, 298° | - | - |
| 1778004589 | 12.78° C | 9% | - | 0 mm | 3.58 m/s, 297° | - | - |
* Rain latest hour (hover to see other rain measurements)
** Current wind speed in m/s (hover to see current wind gust speed)